KI6IKQ Weather Reports


time (UTC)temp
C
wind
direction
speed
KPH
gust
KPH
rain 1hr
cm
rain 24hr
cm
rain mn
cm
humidity
%
barometer
mb
20260504001803 21 271 6.4 19.3 0.00 0.00 0.00 54 1010.9
20260504000903 21 264 4.8 16.1 0.00 0.00 0.00 54 1010.8
20260504000003 22 271 4.8 14.5 0.00 0.00 0.00 53 1010.8
20260503235403 22 307 4.8 17.7 0.00 0.00 0.00 53 1010.7
20260503234503 22 282 4.8 17.7 0.00 0.00 0.00 54 1010.7
20260503233603 22 309 4.8 17.7 0.00 0.00 0.00 54 1010.7
20260503232703 22 277 4.8 12.9 0.00 0.00 0.00 53 1010.7
20260503231803 22 290 4.8 17.7 0.00 0.00 0.00 53 1010.8
20260503230903 22 290 4.8 19.3 0.00 0.00 0.00 52 1010.9
20260503230003 22 325 4.8 17.7 0.00 0.00 0.00 54 1010.9
20260503225403 22 312 4.8 17.7 0.00 0.00 0.00 52 1010.9
20260503224503 22 285 4.8 16.1 0.00 0.00 0.00 53 1010.9
20260503223606 22 285 4.8 14.5 0.00 0.00 0.00 54 1011.0
20260503222703 21 293 4.8 17.7 0.00 0.00 0.00 55 1011.1
20260503221803 21 265 4.8 14.5 0.00 0.00 0.00 56 1011.0
20260503220903 21 296 4.8 17.7 0.00 0.00 0.00 53 1011.1
20260503220003 21 309 4.8 16.1 0.00 0.00 0.00 54 1011.1
20260503215406 22 311 4.8 24.1 0.00 0.00 0.00 52 1011.1
20260503214503 21 302 4.8 12.9 0.00 0.00 0.00 56 1011.3
20260503213603 21 297 4.8 12.9 0.00 0.00 0.00 53 1011.4
20260503212703 21 327 4.8 14.5 0.00 0.00 0.00 55 1011.5
20260503211803 21 337 4.8 17.7 0.00 0.00 0.00 54 1011.4
20260503210924 22 284 3.2 14.5 0.00 0.00 0.00 54 1011.5
20260503210003 21 341 6.4 20.9 0.00 0.00 0.00 56 1011.4
20260503205403 21 308 4.8 12.9 0.00 0.00 0.00 55 1011.4
20260503204503 21 312 4.8 16.1 0.00 0.00 0.00 56 1011.4
20260503203603 21 324 4.8 17.7 0.00 0.00 0.00 56 1011.4
20260503202703 21 311 4.8 12.9 0.00 0.00 0.00 57 1011.4
20260503201803 21 290 4.8 12.9 0.00 0.00 0.00 57 1011.4
20260503200903 21 318 6.4 19.3 0.00 0.00 0.00 56 1011.4
20260503200003 20 275 3.2 14.5 0.00 0.00 0.00 58 1011.5
20260503195403 20 274 3.2 8.0 0.00 0.00 0.00 56 1011.6
20260503194503 21 284 3.2 14.5 0.00 0.00 0.00 55 1011.8
20260503193603 21 280 3.2 11.3 0.00 0.00 0.00 57 1011.8
20260503192703 21 278 3.2 12.9 0.00 0.00 0.00 56 1011.8
20260503191803 20 320 3.2 8.0 0.00 0.00 0.00 58 1011.7
20260503190903 20 293 3.2 12.9 0.00 0.00 0.00 56 1011.9
20260503190003 20 281 3.2 8.0 0.00 0.00 0.00 58 1011.8
20260503185406 20 287 4.8 19.3 0.00 0.00 0.00 56 1011.8
20260503184503 20 282 3.2 12.9 0.00 0.00 0.00 57 1011.8
20260503183603 20 334 4.8 22.5 0.00 0.00 0.00 57 1011.7
20260503182703 20 286 4.8 22.5 0.00 0.00 0.00 58 1011.8
20260503181803 20 269 3.2 16.1 0.00 0.00 0.00 58 1011.7
20260503180904 20 271 3.2 12.9 0.00 0.00 0.00 61 1011.9
20260503180003 19 267 3.2 14.5 0.00 0.00 0.00 61 1011.8
20260503175403 19 266 3.2 16.1 0.00 0.00 0.00 61 1011.8
20260503174503 18 265 3.2 11.3 0.00 0.00 0.00 62 1011.8
20260503173603 18 269 4.8 17.7 0.00 0.00 0.00 61 1011.8
20260503172703 18 267 3.2 11.3 0.00 0.00 0.00 62 1011.6
20260503171803 18 298 4.8 9.7 0.00 0.00 0.00 61 1011.8
20260503170903 18 316 3.2 12.9 0.00 0.00 0.00 64 1011.7
20260503150903 13 228 0.0 3.2 0.00 0.00 0.00 82 1011.2
20260503130903 12 296 1.6 4.8 0.00 0.00 0.00 82 1009.9
20260503080903 13 340 1.6 4.8 0.00 0.00 0.00 82 1010.0
20260503072703 13 309 3.2 6.4 0.00 0.00 0.00 82 1010.0
20260503071803 13 325 3.2 4.8 0.00 0.00 0.00 81 1010.1
20260503070903 13 334 3.2 4.8 0.00 0.00 0.00 81 1010.1
20260503054524 13 317 3.2 9.7 0.00 0.00 0.00 78 1010.4
20260503053624 13 324 3.2 14.5 0.00 0.00 0.00 78 1010.3
20260503052703 13 311 3.2 12.9 0.00 0.00 0.00 78 1010.4
20260503051803 13 310 3.2 11.3 0.00 0.00 0.00 77 1010.2
20260503050903 14 314 3.2 8.0 0.00 0.00 0.00 77 1010.3
20260503050003 14 320 3.2 12.9 0.00 0.00 0.00 76 1010.3
20260503045403 14 322 3.2 12.9 0.00 0.00 0.00 76 1010.3
20260503044503 14 308 3.2 12.9 0.00 0.00 0.00 76 1010.2
20260503043603 14 313 3.2 12.9 0.00 0.00 0.00 75 1010.2
20260503042703 15 317 4.8 17.7 0.00 0.00 0.00 74 1010.1
20260503041803 15 318 4.8 14.5 0.00 0.00 0.00 74 1010.1
20260503040903 15 320 3.2 12.9 0.00 0.00 0.00 74 1010.1
20260503040003 15 330 4.8 12.9 0.00 0.00 0.00 73 1010.1
20260503035403 15 323 3.2 12.9 0.00 0.00 0.00 73 1009.9
20260503034503 16 306 3.2 9.7 0.00 0.00 0.00 73 1009.9
20260503033603 16 310 3.2 9.7 0.00 0.00 0.00 72 1009.6
20260503032703 16 301 3.2 12.9 0.00 0.00 0.00 71 1009.7
20260503031803 16 312 3.2 16.1 0.00 0.00 0.00 71 1009.6
20260503030903 16 300 3.2 12.9 0.00 0.00 0.00 70 1009.3
20260503030024 17 308 3.2 11.3 0.00 0.00 0.00 69 1009.4
20260503025403 17 306 3.2 12.9 0.00 0.00 0.00 68 1009.4
20260503024503 17 313 3.2 14.5 0.00 0.00 0.00 68 1009.3
20260503023603 18 297 3.2 14.5 0.00 0.00 0.00 67 1009.1
20260503022703 18 295 3.2 11.3 0.00 0.00 0.00 66 1009.0
20260503021803 18 298 3.2 11.3 0.00 0.00 0.00 65 1009.0
20260503020903 19 300 3.2 11.3 0.00 0.00 0.00 65 1008.8
20260503020003 19 301 3.2 12.9 0.00 0.00 0.00 64 1008.9
20260503015403 20 294 3.2 11.3 0.00 0.00 0.00 63 1008.9
20260503014503 20 292 3.2 14.5 0.00 0.00 0.00 62 1008.8
20260503013624 20 315 3.2 9.7 0.00 0.00 0.00 63 1008.9
20260503012724 21 338 4.8 16.1 0.00 0.00 0.00 63 1009.1
20260503011824 21 326 6.4 16.1 0.00 0.00 0.00 61 1009.0
20260503010924 21 333 4.8 14.5 0.00 0.00 0.00 60 1008.9
20260503010024 22 335 4.8 14.5 0.00 0.00 0.00 59 1009.1
20260503005424 22 336 4.8 14.5 0.00 0.00 0.00 59 1009.0
20260503004503 22 336 4.8 12.9 0.00 0.00 0.00 58 1009.1
20260503003603 23 335 4.8 16.1 0.00 0.00 0.00 58 1009.2
20260503002703 23 334 4.8 17.7 0.00 0.00 0.00 57 1009.2